Flag for U.S.A. Weather past 2 weeks in Atlantic City, New Jersey, U.S.A.

Now
84 °F

Sunny.


Feels Like: 83 °F
Forecast: 61 / 75 °F
Wind: 15 mph from Southwest

Location: Atlantic City International Airport

Current Time: May 25, 2015 at 4:05:37 PM

Latest Report: May 25, 2015 at 2:54 PM


Visibility: 10 mi

Pressure: 30.24 "Hg

Humidity: 38%

Dew point: 56 °F

Location of Atlantic CityLocation

Historic Weather in Atlantic City — Graph

°F

Atlantic City temperature yesterday

Maximum temperature yesterday: 75 °F (at 12:54 PM)
Minimum temperature yesterday: 49 °F (at 5:54 AM)
Average temperature yesterday: 63 °F

Past Weeks' High & Low Weather Summary

 TemperatureHumidityPressure
High89 °F (May 12, 2:54 PM)100% (May 19, 5:54 AM)30.44 "Hg (May 19, 5:54 AM)
Low45 °F (May 21, 12:54 AM)22% (May 15, 1:54 PM)29.80 "Hg (May 12, 5:54 PM)
Average66 °F65%30.12 "Hg
* Reported May 10 2:54 PM — May 25 2:54 PM, Atlantic City, Weather by CustomWeather, © 2015

Note: Actual official high and low records may vary slightly from our data, if they occured in-between our weather recording intervals... More about our weather records

Advertising

Atlantic City weather history for previous 24 hours

 ConditionsComfort  
Time TempWeatherWind HumidityBarometerVisibility
2:54 PM
Mon, May 25
84 °FSunny.15 mph38%30.24 "Hg10 mi
1:54 PM84 °FSunny.16 mph40%30.25 "Hg10 mi
12:54 PM83 °FSunny.18 mph41%30.26 "Hg10 mi
11:54 AM81 °FSunny.9 mph44%30.27 "Hg10 mi
10:54 AM79 °FSunny.13 mph48%30.29 "Hg10 mi
9:54 AM76 °FSunny.9 mph56%30.30 "Hg10 mi
8:54 AM72 °FSunny.9 mph64%30.30 "Hg10 mi
7:54 AM68 °FSunny.12 mph70%30.29 "Hg10 mi
6:54 AM62 °FSunny.6 mph83%30.29 "Hg10 mi
5:54 AM60 °FClear.5 mph86%30.28 "Hg10 mi
4:54 AM60 °FClear.6 mph83%30.28 "Hg10 mi
3:54 AM60 °FClear.6 mph83%30.28 "Hg10 mi
2:54 AM61 °FClear.6 mph78%30.27 "Hg10 mi
1:54 AM61 °FClear.7 mph78%30.28 "Hg10 mi
12:54 AM62 °FClear.7 mph75%30.29 "Hg10 mi
11:54 PM
Sun, May 24
61 °FClear.5 mph75%30.30 "Hg10 mi
10:54 PM61 °FClear.7 mph75%30.31 "Hg10 mi
9:54 PM62 °FClear.8 mph70%30.30 "Hg10 mi
8:54 PM62 °FSunny.9 mph67%30.29 "Hg10 mi
7:54 PM64 °FSunny.9 mph58%30.29 "Hg10 mi
6:54 PM67 °FSunny.12 mph51%30.28 "Hg10 mi
5:54 PM69 °FSunny.15 mph44%30.28 "Hg10 mi
4:54 PM72 °FSunny.17 mph38%30.29 "Hg10 mi
Weather by CustomWeather, © 2015

See weather overviewHow to use our weather pages